PBD170 URMM-UUWW

Flight info

Callsign PBD170
Flight time 3h 30m
Altitude 35000
Route URILU R227 BEMES DCT VULFI DCT TUVGI DCT EVZUN DCT ZIZAR DCT VAZLU DCT UZZID DCT NOKLI N72 WGD G481 OBABI T619 UMRAL P163 LADIM/K0854F360 P163 GOLRI L736 OLOPI
Aircraft B738/M-URKE/L

Departure

Time 2026-04-22 08:27
Airport Mineralnye Vody Airport (URMM)

Arrival

Time 2026-04-22 11:57
Airport Vnukovo International Airport (UUWW)
Time Latitude Longitude Altitude Speed Heading
2026-04-22 08:05 44.21776 43.08942 1050 ft 0 kts 212°
2026-04-22 08:19 44.21788 43.08952 1050 ft 4 kts 212°
2026-04-22 08:19 44.21811 43.08971 1065 ft 4 kts 212°
2026-04-22 08:19 44.21833 43.08990 1050 ft 4 kts 200°
2026-04-22 08:20 44.21856 43.08992 1050 ft 4 kts 146°
2026-04-22 08:20 44.21869 43.08974 1050 ft 0 kts 122°
2026-04-22 08:22 44.21869 43.08973 1050 ft 0 kts 122°
2026-04-22 08:22 44.21869 43.08974 1050 ft 1 kts 122°
2026-04-22 08:22 44.21831 43.09052 1052 ft 12 kts 134°
2026-04-22 08:23 44.21780 43.09155 1050 ft 15 kts 122°
2026-04-22 08:23 44.21713 43.09292 1050 ft 19 kts 137°
2026-04-22 08:23 44.21628 43.09448 1050 ft 22 kts 122°
2026-04-22 08:23 44.21544 43.09635 1050 ft 24 kts 122°
2026-04-22 08:24 44.21526 43.09858 1050 ft 24 kts 77°
2026-04-22 08:24 44.21563 43.10077 1051 ft 23 kts 77°
2026-04-22 08:24 44.21636 43.10251 1050 ft 9 kts 31°
2026-04-22 08:24 44.21641 43.10255 1050 ft 0 kts 31°
2026-04-22 08:25 44.21644 43.10257 1050 ft 1 kts 31°
2026-04-22 08:25 44.21664 43.10274 1049 ft 11 kts 31°
2026-04-22 08:25 44.21760 43.10315 1051 ft 16 kts 327°
2026-04-22 08:25 44.21793 43.10253 1052 ft 0 kts 302°
2026-04-22 08:26 44.21817 43.10200 1051 ft 31 kts 302°
2026-04-22 08:26 44.22065 43.09654 1057 ft 102 kts 302°
2026-04-22 08:26 44.22565 43.08572 1054 ft 161 kts 305°
2026-04-22 08:26 44.23263 43.07137 1406 ft 189 kts 304°
2026-04-22 08:27 44.23999 43.05578 2184 ft 195 kts 303°
2026-04-22 08:27 44.24737 43.03940 2890 ft 199 kts 304°
2026-04-22 08:27 44.25459 43.02335 3707 ft 195 kts 303°
2026-04-22 08:27 44.26196 43.00632 4067 ft 218 kts 303°
2026-04-22 08:28 44.27031 42.98719 4408 ft 242 kts 302°
2026-04-22 08:28 44.27934 42.96688 5087 ft 250 kts 302°
2026-04-22 08:28 44.28878 42.94585 5685 ft 261 kts 301°
2026-04-22 08:28 44.29900 42.92418 6282 ft 274 kts 309°
2026-04-22 08:29 44.31478 42.90865 6849 ft 286 kts 340°
2026-04-22 08:29 44.33431 42.90583 7596 ft 289 kts
2026-04-22 08:29 44.35318 42.91575 8273 ft 295 kts 36°
2026-04-22 08:29 44.36737 42.93700 8913 ft 298 kts 65°
2026-04-22 08:30 44.37297 42.96405 9612 ft 294 kts 95°
2026-04-22 08:30 44.36875 42.99133 10249 ft 287 kts 120°
2026-04-22 08:30 44.35979 43.01642 10842 ft 293 kts 123°
2026-04-22 08:30 44.34999 43.04196 11322 ft 306 kts 124°
2026-04-22 08:31 44.33952 43.06916 11471 ft 329 kts 123°
2026-04-22 08:31 44.32845 43.09836 11644 ft 351 kts 122°
2026-04-22 08:31 44.30521 43.16122 12474 ft 374 kts 122°
2026-04-22 08:32 44.29322 43.19386 13070 ft 380 kts 122°
2026-04-22 08:32 44.28102 43.22701 13636 ft 388 kts 122°
2026-04-22 08:32 44.27016 43.26197 14160 ft 398 kts 114°
2026-04-22 08:32 44.26142 43.29889 14767 ft 403 kts 111°
2026-04-22 08:33 44.25335 43.33653 15347 ft 407 kts 110°
2026-04-22 08:33 44.24521 43.37472 15884 ft 412 kts 111°
2026-04-22 08:33 44.23681 43.41317 16412 ft 417 kts 111°
2026-04-22 08:33 44.22809 43.45191 16961 ft 421 kts 111°
2026-04-22 08:34 44.21909 43.49112 17494 ft 426 kts 112°
2026-04-22 08:34 44.20994 43.53054 18004 ft 430 kts 112°
2026-04-22 08:34 44.20063 43.57046 18483 ft 435 kts 112°
2026-04-22 08:34 44.19135 43.61020 18986 ft 437 kts 111°
2026-04-22 08:35 44.18192 43.65056 19501 ft 439 kts 111°
2026-04-22 08:35 44.17243 43.69107 19999 ft 442 kts 111°
2026-04-22 08:35 44.16394 43.73241 20474 ft 447 kts 104°
2026-04-22 08:35 44.15841 43.77527 20950 ft 451 kts 101°
2026-04-22 08:36 44.15395 43.81875 21432 ft 454 kts 100°
2026-04-22 08:36 44.14968 43.86242 21898 ft 457 kts 100°
2026-04-22 08:36 44.14522 43.90635 22371 ft 459 kts 100°
2026-04-22 08:36 44.14048 43.95039 22823 ft 461 kts 101°
2026-04-22 08:37 44.13551 43.99461 23271 ft 464 kts 101°
2026-04-22 08:37 44.13037 44.03910 23663 ft 466 kts 101°
2026-04-22 08:37 44.12515 44.08373 24025 ft 468 kts 101°
2026-04-22 08:37 44.11996 44.12803 24392 ft 470 kts 101°
2026-04-22 08:38 44.11469 44.17302 24744 ft 473 kts 101°
2026-04-22 08:38 44.10938 44.21829 25083 ft 475 kts 101°
2026-04-22 08:38 44.10402 44.26378 25417 ft 477 kts 101°
2026-04-22 08:38 44.09861 44.30948 25752 ft 479 kts 102°
2026-04-22 08:39 44.09316 44.35535 26090 ft 481 kts 102°
2026-04-22 08:39 44.08767 44.40140 26410 ft 484 kts 102°
2026-04-22 08:39 44.08214 44.44769 26722 ft 486 kts 102°
2026-04-22 08:39 44.07658 44.49410 27027 ft 488 kts 102°
2026-04-22 08:40 44.07098 44.54071 27331 ft 490 kts 102°
2026-04-22 08:40 44.06532 44.58768 27634 ft 492 kts 101°
2026-04-22 08:40 44.06009 44.63477 27919 ft 494 kts 100°
2026-04-22 08:40 44.05525 44.68218 28211 ft 496 kts 100°
2026-04-22 08:41 44.05053 44.72986 28487 ft 498 kts 99°
2026-04-22 08:41 44.04579 44.77762 28760 ft 500 kts 100°
2026-04-22 08:41 44.04095 44.82562 29037 ft 502 kts 100°
2026-04-22 08:41 44.03609 44.87306 29295 ft 504 kts 100°
2026-04-22 08:42 44.03107 44.92134 29569 ft 505 kts 100°
2026-04-22 08:42 44.02602 44.96957 29925 ft 504 kts 100°
2026-04-22 08:42 44.02096 45.01769 30279 ft 502 kts 100°
2026-04-22 08:42 44.01589 45.06565 30650 ft 500 kts 100°
2026-04-22 08:43 44.01083 45.11337 30994 ft 499 kts 100°
2026-04-22 08:43 44.00577 45.16098 31305 ft 498 kts 100°
2026-04-22 08:43 44.00069 45.20856 31605 ft 498 kts 101°
2026-04-22 08:43 43.99555 45.25605 31918 ft 496 kts 101°
2026-04-22 08:44 43.99031 45.30341 32237 ft 495 kts 101°
2026-04-22 08:44 43.98510 45.35013 32538 ft 494 kts 101°
2026-04-22 08:44 43.97981 45.39734 32827 ft 494 kts 101°
2026-04-22 08:44 43.97452 45.44445 33124 ft 493 kts 101°
2026-04-22 08:45 43.96923 45.49146 33416 ft 492 kts 101°
2026-04-22 08:45 43.96393 45.53847 33695 ft 492 kts 101°
2026-04-22 08:45 43.95864 45.58526 33925 ft 492 kts 102°
2026-04-22 08:46 43.94787 45.67983 34028 ft 500 kts 102°
2026-04-22 08:46 43.93688 45.77580 34149 ft 505 kts 102°
2026-04-22 08:47 43.92602 45.87218 34409 ft 506 kts 98°
2026-04-22 08:47 43.92401 45.92103 34571 ft 508 kts 90°
2026-04-22 08:47 43.92674 45.96996 34737 ft 508 kts 85°
2026-04-22 08:47 43.93049 46.01817 34852 ft 508 kts 85°
2026-04-22 08:48 43.93452 46.06692 34870 ft 509 kts 84°
2026-04-22 08:48 43.94235 46.16462 34888 ft 509 kts 85°
2026-04-22 08:49 43.94957 46.26235 34882 ft 510 kts 85°
2026-04-22 08:49 43.95645 46.36028 34886 ft 510 kts 86°
2026-04-22 08:50 43.96320 46.45821 34884 ft 509 kts 86°
2026-04-22 08:50 43.96989 46.55610 34887 ft 509 kts 86°
2026-04-22 08:51 43.97648 46.65338 34887 ft 508 kts 86°
2026-04-22 08:51 43.98301 46.75101 34888 ft 508 kts 86°
2026-04-22 08:52 43.98946 46.84860 34888 ft 507 kts 86°
2026-04-22 08:52 43.99581 46.94607 34891 ft 506 kts 86°
2026-04-22 08:53 44.00207 47.04348 34894 ft 505 kts 86°
2026-04-22 08:53 44.00823 47.14067 34903 ft 505 kts 86°
2026-04-22 08:54 44.01431 47.23781 34903 ft 504 kts 86°
2026-04-22 08:54 44.02025 47.33419 34909 ft 504 kts 86°
2026-04-22 08:55 44.02615 47.43108 34909 ft 503 kts 86°
2026-04-22 08:55 44.03196 47.52801 34914 ft 503 kts 86°
2026-04-22 08:56 44.03769 47.62493 34919 ft 503 kts 86°
2026-04-22 08:56 44.04334 47.72187 34924 ft 503 kts 86°
2026-04-22 08:57 44.04891 47.81882 34927 ft 503 kts 86°
2026-04-22 08:57 44.05439 47.91582 34925 ft 503 kts 86°
2026-04-22 08:58 44.05979 48.01275 34929 ft 503 kts 86°
2026-04-22 08:58 44.06507 48.10900 34929 ft 502 kts 86°
2026-04-22 08:59 44.07031 48.20593 34936 ft 502 kts 86°
2026-04-22 08:59 44.07548 48.30296 34935 ft 502 kts 86°
2026-04-22 09:00 44.08058 48.39985 34936 ft 502 kts 86°
2026-04-22 09:00 44.08566 48.49668 34936 ft 502 kts 86°
2026-04-22 09:01 44.09067 48.59345 34936 ft 501 kts 86°
2026-04-22 09:01 44.09555 48.68958 34939 ft 501 kts 86°
2026-04-22 09:02 44.10037 48.78618 34941 ft 501 kts 86°
2026-04-22 09:02 44.10515 48.88284 34941 ft 500 kts 85°
2026-04-22 09:02 44.11216 48.93003 34922 ft 499 kts 68°
2026-04-22 09:03 44.12832 48.97240 34947 ft 495 kts 51°
2026-04-22 09:03 44.15161 49.00701 34949 ft 489 kts 35°
2026-04-22 09:03 44.18012 49.03205 34944 ft 482 kts 20°
2026-04-22 09:03 44.21176 49.04604 34949 ft 474 kts
2026-04-22 09:04 44.24436 49.04928 34947 ft 467 kts 353°
2026-04-22 09:04 44.27610 49.04251 34940 ft 459 kts 339°
2026-04-22 09:04 44.30584 49.02717 34956 ft 455 kts 333°
2026-04-22 09:05 44.36406 48.99248 34942 ft 455 kts 332°
2026-04-22 09:05 44.42235 48.95728 34937 ft 456 kts 332°
2026-04-22 09:06 44.48081 48.92267 34942 ft 456 kts 332°
2026-04-22 09:06 44.53945 48.88832 34939 ft 457 kts 332°
2026-04-22 09:07 44.59768 48.85425 34937 ft 457 kts 332°
2026-04-22 09:07 44.65638 48.81981 34933 ft 457 kts 332°
2026-04-22 09:08 44.71502 48.78532 34937 ft 457 kts 332°
2026-04-22 09:08 44.77365 48.75074 34941 ft 457 kts 332°
2026-04-22 09:09 44.83225 48.71611 34935 ft 457 kts 332°
2026-04-22 09:09 44.89093 48.68135 34939 ft 457 kts 332°
2026-04-22 09:10 44.94962 48.64650 34943 ft 458 kts 332°
2026-04-22 09:10 45.00807 48.61173 34939 ft 458 kts 332°
2026-04-22 09:11 45.06682 48.57670 34935 ft 458 kts 331°
2026-04-22 09:11 45.11610 48.54726 34935 ft 458 kts 331°
2026-04-22 09:12 45.17453 48.51227 34934 ft 459 kts 331°
2026-04-22 09:12 45.23340 48.47694 34932 ft 459 kts 331°
2026-04-22 09:13 45.29226 48.44154 34935 ft 460 kts 331°
2026-04-22 09:13 45.35124 48.40598 34936 ft 461 kts 331°
2026-04-22 09:14 45.41032 48.37028 34932 ft 461 kts 331°
2026-04-22 09:14 45.46937 48.33453 34933 ft 462 kts 331°
2026-04-22 09:15 45.52864 48.29855 34931 ft 462 kts 331°
2026-04-22 09:15 45.58791 48.26249 34934 ft 463 kts 331°
2026-04-22 09:16 45.64687 48.22655 34936 ft 464 kts 330°
2026-04-22 09:16 45.70628 48.19023 34927 ft 464 kts 330°
2026-04-22 09:17 45.76577 48.15379 34927 ft 464 kts 330°
2026-04-22 09:17 45.82517 48.11732 34929 ft 465 kts 330°
2026-04-22 09:18 45.88466 48.08071 34927 ft 465 kts 330°
2026-04-22 09:18 45.94414 48.04401 34921 ft 465 kts 330°
2026-04-22 09:19 46.00363 48.00722 34914 ft 465 kts 330°
2026-04-22 09:19 46.06132 47.96747 34889 ft 456 kts 319°
2026-04-22 09:20 46.10692 47.90704 34895 ft 439 kts 301°
2026-04-22 09:20 46.14009 47.83405 34898 ft 434 kts 296°
2026-04-22 09:21 46.17251 47.76045 34896 ft 435 kts 297°
2026-04-22 09:21 46.20533 47.68715 34897 ft 435 kts 297°
2026-04-22 09:22 46.23827 47.61391 34901 ft 435 kts 297°
2026-04-22 09:22 46.27118 47.54050 34902 ft 435 kts 297°
2026-04-22 09:23 46.30397 47.46715 34903 ft 434 kts 296°
2026-04-22 09:23 46.33674 47.39369 34899 ft 434 kts 296°
2026-04-22 09:24 46.36942 47.32019 34896 ft 434 kts 296°
2026-04-22 09:24 46.40184 47.24708 34897 ft 434 kts 296°
2026-04-22 09:25 46.43449 47.17327 34894 ft 434 kts 296°
2026-04-22 09:25 46.46702 47.09953 34892 ft 434 kts 296°
2026-04-22 09:26 46.49952 47.02567 34894 ft 434 kts 296°
2026-04-22 09:26 46.53200 46.95165 34888 ft 435 kts 296°
2026-04-22 09:27 46.56445 46.87751 34886 ft 435 kts 296°
2026-04-22 09:27 46.59691 46.80315 34883 ft 435 kts 295°
2026-04-22 09:28 46.62912 46.72917 34884 ft 436 kts 295°
2026-04-22 09:28 46.66152 46.65454 34880 ft 436 kts 295°
2026-04-22 09:29 46.69391 46.57973 34875 ft 437 kts 295°
2026-04-22 09:29 46.72633 46.50466 34881 ft 437 kts 295°
2026-04-22 09:30 46.75869 46.42950 34877 ft 438 kts 295°
2026-04-22 09:30 46.79106 46.35413 34889 ft 439 kts 295°
2026-04-22 09:31 46.82327 46.27890 34880 ft 440 kts 295°
2026-04-22 09:31 46.85564 46.20312 34874 ft 440 kts 295°
2026-04-22 09:32 46.88798 46.12724 34878 ft 440 kts 295°
2026-04-22 09:32 46.92533 46.05528 34878 ft 455 kts 309°
2026-04-22 09:33 46.97766 46.00073 34865 ft 472 kts 326°
2026-04-22 09:33 47.03730 45.95940 34860 ft 474 kts 328°
2026-04-22 09:34 47.09728 45.91897 34856 ft 474 kts 328°
2026-04-22 09:34 47.15698 45.87773 34867 ft 475 kts 327°
2026-04-22 09:35 47.24649 45.81474 34854 ft 475 kts 327°
2026-04-22 09:35 47.30607 45.77260 34847 ft 475 kts 327°
2026-04-22 09:36 47.36523 45.73069 34845 ft 475 kts 327°
2026-04-22 09:36 47.42486 45.68836 34842 ft 475 kts 327°
2026-04-22 09:37 47.48449 45.64593 34837 ft 475 kts 327°
2026-04-22 09:37 47.54405 45.60344 34832 ft 475 kts 327°
2026-04-22 09:38 47.60361 45.56083 34828 ft 476 kts 327°
2026-04-22 09:38 47.66324 45.51807 34825 ft 476 kts 327°
2026-04-22 09:39 47.72278 45.47526 34824 ft 476 kts 328°
2026-04-22 09:39 47.78184 45.43234 34813 ft 474 kts 324°
2026-04-22 09:40 47.83387 45.37534 34822 ft 460 kts 311°
2026-04-22 09:40 47.88068 45.31032 34809 ft 460 kts 311°
2026-04-22 09:41 47.92770 45.24549 34800 ft 460 kts 311°
2026-04-22 09:41 47.97503 45.18111 34799 ft 460 kts 311°
2026-04-22 09:42 48.02247 45.11678 34791 ft 461 kts 314°
2026-04-22 09:42 48.07469 45.06071 34790 ft 467 kts 321°
2026-04-22 09:43 48.12920 45.00765 34787 ft 467 kts 321°
2026-04-22 09:43 48.18355 44.95405 34780 ft 467 kts 321°
2026-04-22 09:44 48.23724 44.90015 34776 ft 467 kts 320°
2026-04-22 09:44 48.29107 44.84571 34778 ft 467 kts 320°
2026-04-22 09:45 48.34496 44.79108 34776 ft 467 kts 321°
2026-04-22 09:45 48.39883 44.73638 34766 ft 467 kts 321°
2026-04-22 09:46 48.45264 44.68160 34763 ft 467 kts 321°
2026-04-22 09:46 48.50651 44.62663 34754 ft 468 kts 321°
2026-04-22 09:47 48.56045 44.57141 34747 ft 469 kts 321°
2026-04-22 09:47 48.61434 44.51608 34735 ft 469 kts 321°
2026-04-22 09:48 48.66830 44.46053 34727 ft 469 kts 321°
2026-04-22 09:48 48.72222 44.40487 34722 ft 469 kts 321°
2026-04-22 09:49 48.77649 44.34976 34718 ft 472 kts 325°
2026-04-22 09:49 48.83716 44.30981 34725 ft 478 kts 335°
2026-04-22 09:50 48.89993 44.27567 34721 ft 479 kts 336°
2026-04-22 09:50 48.96258 44.24114 34722 ft 479 kts 335°
2026-04-22 09:51 49.02465 44.20605 34728 ft 478 kts 335°
2026-04-22 09:51 49.08698 44.17044 34723 ft 479 kts 335°
2026-04-22 09:52 49.14942 44.13468 34720 ft 479 kts 335°
2026-04-22 09:52 49.21190 44.09883 34717 ft 479 kts 335°
2026-04-22 09:53 49.27436 44.06291 34722 ft 479 kts 335°
2026-04-22 09:53 49.33689 44.02686 34717 ft 479 kts 335°
2026-04-22 09:54 49.39933 43.99075 34719 ft 480 kts 335°
2026-04-22 09:54 49.46137 43.95477 34717 ft 480 kts 335°
2026-04-22 09:55 49.52355 43.91772 34709 ft 478 kts 331°
2026-04-22 09:55 49.58222 43.87048 34715 ft 475 kts 327°
2026-04-22 09:56 49.63981 43.82059 34724 ft 475 kts 327°
2026-04-22 09:56 49.69752 43.77105 34730 ft 475 kts 328°
2026-04-22 09:57 49.75549 43.72195 34735 ft 474 kts 328°
2026-04-22 09:57 49.81347 43.67298 34751 ft 474 kts 328°
2026-04-22 09:58 49.87143 43.62392 34746 ft 474 kts 328°
2026-04-22 09:58 49.92929 43.57476 34755 ft 474 kts 328°
2026-04-22 09:59 49.98673 43.52582 34757 ft 474 kts 328°
2026-04-22 09:59 50.04451 43.47644 34778 ft 474 kts 328°
2026-04-22 10:00 50.10231 43.42690 34769 ft 474 kts 328°
2026-04-22 10:00 50.16008 43.37726 34776 ft 474 kts 328°
2026-04-22 10:01 50.21779 43.32754 34786 ft 474 kts 328°
2026-04-22 10:01 50.26580 43.28606 34783 ft 474 kts 328°
2026-04-22 10:02 50.32344 43.23614 34787 ft 473 kts 328°
2026-04-22 10:02 50.38102 43.18612 34790 ft 473 kts 328°
2026-04-22 10:03 50.43863 43.13595 34804 ft 473 kts 328°
2026-04-22 10:03 50.49612 43.08573 34800 ft 473 kts 328°
2026-04-22 10:04 50.55361 43.03536 34804 ft 473 kts 328°
2026-04-22 10:04 50.61108 42.98488 34797 ft 473 kts 328°
2026-04-22 10:05 50.66802 42.93474 34801 ft 472 kts 328°
2026-04-22 10:05 50.72776 42.89023 34813 ft 474 kts 338°
2026-04-22 10:06 50.78972 42.85624 34807 ft 474 kts 339°
2026-04-22 10:06 50.85224 42.82257 34805 ft 474 kts 339°
2026-04-22 10:07 50.91467 42.78815 34803 ft 475 kts 338°
2026-04-22 10:07 50.97695 42.75327 34806 ft 474 kts 338°
2026-04-22 10:08 51.03915 42.71823 34806 ft 474 kts 338°
2026-04-22 10:08 51.10131 42.68312 34820 ft 474 kts 338°
2026-04-22 10:09 51.16350 42.64792 34817 ft 475 kts 338°
2026-04-22 10:09 51.22538 42.61280 34806 ft 475 kts 338°
2026-04-22 10:10 51.28758 42.57741 34816 ft 474 kts 338°
2026-04-22 10:10 51.34969 42.54196 34824 ft 473 kts 338°
2026-04-22 10:11 51.41169 42.50647 34821 ft 473 kts 338°
2026-04-22 10:11 51.47368 42.47088 34827 ft 473 kts 338°
2026-04-22 10:12 51.53517 42.43548 34829 ft 472 kts 338°
2026-04-22 10:12 51.59702 42.39976 34828 ft 472 kts 338°
2026-04-22 10:13 51.65891 42.36392 34833 ft 472 kts 338°
2026-04-22 10:13 51.72077 42.32800 34835 ft 472 kts 338°
2026-04-22 10:14 51.78264 42.29196 34840 ft 472 kts 338°
2026-04-22 10:14 51.84443 42.25586 34835 ft 472 kts 338°
2026-04-22 10:15 51.90617 42.21969 34840 ft 472 kts 338°
2026-04-22 10:15 51.96744 42.18369 34840 ft 472 kts 338°
2026-04-22 10:16 52.02915 42.14731 34846 ft 471 kts 338°
2026-04-22 10:16 52.09077 42.11090 34842 ft 471 kts 338°
2026-04-22 10:17 52.15268 42.07589 34845 ft 471 kts 340°
2026-04-22 10:17 52.21494 42.04215 34845 ft 471 kts 340°
2026-04-22 10:18 52.27698 42.00804 34846 ft 470 kts 340°
2026-04-22 10:18 52.33893 41.97359 34846 ft 470 kts 340°
2026-04-22 10:19 52.40324 41.95475 34845 ft 473 kts 358°
2026-04-22 10:19 52.46926 41.95858 34840 ft 474 kts
2026-04-22 10:20 52.53469 41.96354 34846 ft 474 kts
2026-04-22 10:20 52.60067 41.96729 34842 ft 474 kts
2026-04-22 10:21 52.66660 41.96997 34836 ft 473 kts 355°
2026-04-22 10:21 52.69885 41.96123 34849 ft 470 kts 342°
2026-04-22 10:21 52.72916 41.94161 34846 ft 468 kts 330°
2026-04-22 10:22 52.78124 41.87817 34847 ft 466 kts 319°
2026-04-22 10:22 52.83093 41.80925 34839 ft 466 kts 319°
2026-04-22 10:23 52.88090 41.74073 34841 ft 466 kts 320°
2026-04-22 10:23 52.93109 41.67266 34833 ft 466 kts 320°
2026-04-22 10:24 52.98128 41.60461 34836 ft 466 kts 320°
2026-04-22 10:24 53.03116 41.53674 34833 ft 466 kts 320°
2026-04-22 10:25 53.08127 41.46830 34831 ft 466 kts 320°
2026-04-22 10:25 53.13136 41.39966 34825 ft 466 kts 320°
2026-04-22 10:26 53.18141 41.33089 34826 ft 466 kts 320°
2026-04-22 10:26 53.23420 41.26866 34822 ft 466 kts 332°
2026-04-22 10:27 53.29486 41.23106 34833 ft 466 kts 343°
2026-04-22 10:27 53.35722 41.20073 34828 ft 466 kts 343°
2026-04-22 10:28 53.41904 41.17001 34820 ft 466 kts 343°
2026-04-22 10:28 53.47863 41.13955 34819 ft 466 kts 343°
2026-04-22 10:29 53.54061 41.10759 34822 ft 466 kts 343°
2026-04-22 10:29 53.60271 41.07551 34818 ft 466 kts 343°
2026-04-22 10:30 53.66429 41.04279 34427 ft 464 kts 336°
2026-04-22 10:30 53.69191 41.01525 33881 ft 457 kts 321°
2026-04-22 10:30 53.71406 40.97769 33095 ft 449 kts 308°
2026-04-22 10:31 53.72962 40.93245 32331 ft 443 kts 295°
2026-04-22 10:31 53.74174 40.88495 32099 ft 440 kts 294°
2026-04-22 10:31 53.75357 40.83673 31828 ft 449 kts 293°
2026-04-22 10:31 53.76567 40.78758 31551 ft 455 kts 294°
2026-04-22 10:32 53.77797 40.73836 31260 ft 454 kts 294°
2026-04-22 10:32 53.79040 40.68931 30982 ft 453 kts 294°
2026-04-22 10:32 53.80288 40.64055 30712 ft 451 kts 294°
2026-04-22 10:32 53.81534 40.59198 30442 ft 449 kts 294°
2026-04-22 10:33 53.82761 40.54411 30178 ft 448 kts 294°
2026-04-22 10:33 53.83997 40.49578 29909 ft 446 kts 294°
2026-04-22 10:33 53.85224 40.44763 29590 ft 445 kts 294°
2026-04-22 10:33 53.86449 40.39947 29278 ft 444 kts 294°
2026-04-22 10:34 53.87683 40.35082 28945 ft 445 kts 294°
2026-04-22 10:34 53.88887 40.30325 28634 ft 445 kts 294°
2026-04-22 10:34 53.90108 40.25488 28321 ft 447 kts 294°
2026-04-22 10:34 53.91333 40.20625 28025 ft 449 kts 294°
2026-04-22 10:35 53.92560 40.15746 27724 ft 451 kts 294°
2026-04-22 10:35 53.93793 40.10831 27423 ft 453 kts 294°
2026-04-22 10:35 53.95027 40.05903 27128 ft 454 kts 294°
2026-04-22 10:35 53.96263 40.00954 26830 ft 455 kts 294°
2026-04-22 10:36 53.97497 39.96002 26545 ft 456 kts 294°
2026-04-22 10:36 53.98733 39.91027 26252 ft 457 kts 294°
2026-04-22 10:36 53.99969 39.86046 25964 ft 457 kts 294°
2026-04-22 10:36 54.01201 39.81069 25677 ft 458 kts 294°
2026-04-22 10:37 54.02433 39.76080 25396 ft 458 kts 294°
2026-04-22 10:37 54.04892 39.66087 24877 ft 454 kts 294°
2026-04-22 10:37 54.06106 39.61135 24822 ft 454 kts 294°
2026-04-22 10:38 54.07318 39.56185 24804 ft 452 kts 294°
2026-04-22 10:38 54.08526 39.51234 24796 ft 452 kts 294°
2026-04-22 10:38 54.09733 39.46283 24810 ft 453 kts 294°
2026-04-22 10:38 54.10922 39.41390 24800 ft 454 kts 294°
2026-04-22 10:39 54.12129 39.36416 24801 ft 454 kts 294°
2026-04-22 10:39 54.13334 39.31436 24802 ft 455 kts 294°
2026-04-22 10:39 54.14537 39.26453 24811 ft 455 kts 294°
2026-04-22 10:39 54.15739 39.21460 24800 ft 455 kts 294°
2026-04-22 10:40 54.16939 39.16467 24797 ft 455 kts 294°
2026-04-22 10:40 54.18140 39.11460 24811 ft 455 kts 294°
2026-04-22 10:40 54.19337 39.06454 24809 ft 456 kts 294°
2026-04-22 10:40 54.20534 39.01438 24804 ft 456 kts 294°
2026-04-22 10:41 54.21728 38.96426 24792 ft 456 kts 294°
2026-04-22 10:41 54.22923 38.91398 24794 ft 456 kts 294°
2026-04-22 10:41 54.24256 38.86597 24772 ft 436 kts 306°
2026-04-22 10:41 54.26177 38.82800 24794 ft 412 kts 321°
2026-04-22 10:42 54.28501 38.80107 24810 ft 401 kts 335°
2026-04-22 10:42 54.31092 38.78422 24800 ft 398 kts 348°
2026-04-22 10:42 54.33824 38.77781 24797 ft 397 kts
2026-04-22 10:42 54.36563 38.78246 24804 ft 396 kts 14°
2026-04-22 10:43 54.39156 38.79826 24798 ft 396 kts 27°
2026-04-22 10:43 54.41441 38.82438 24800 ft 397 kts 41°
2026-04-22 10:43 54.43300 38.85939 24801 ft 398 kts 54°
2026-04-22 10:43 54.44618 38.90126 24793 ft 400 kts 68°
2026-04-22 10:44 54.45310 38.94761 24798 ft 402 kts 81°
2026-04-22 10:44 54.45426 38.99564 24806 ft 405 kts 92°
2026-04-22 10:44 54.44912 39.04333 24804 ft 408 kts 106°
2026-04-22 10:44 54.43897 39.08904 24801 ft 410 kts 110°
2026-04-22 10:45 54.42792 39.13420 24786 ft 410 kts 111°
2026-04-22 10:45 54.41678 39.17917 24797 ft 409 kts 111°
2026-04-22 10:45 54.40579 39.22425 24785 ft 409 kts 110°
2026-04-22 10:45 54.39497 39.26946 24802 ft 409 kts 110°
2026-04-22 10:46 54.38424 39.31459 24793 ft 409 kts 110°
2026-04-22 10:46 54.37350 39.35913 24796 ft 410 kts 113°
2026-04-22 10:46 54.35777 39.39996 24813 ft 413 kts 130°
2026-04-22 10:46 54.33615 39.43284 24791 ft 417 kts 144°
2026-04-22 10:47 54.31059 39.45631 24809 ft 420 kts 158°
2026-04-22 10:47 54.28227 39.46882 24813 ft 422 kts 172°
2026-04-22 10:47 54.25286 39.46870 24799 ft 425 kts 188°
2026-04-22 10:47 54.22441 39.45545 24805 ft 425 kts 203°
2026-04-22 10:48 54.19893 39.43004 24816 ft 425 kts 219°
2026-04-22 10:48 54.17816 39.39442 24797 ft 424 kts 234°
2026-04-22 10:48 54.16346 39.35112 24812 ft 422 kts 249°
2026-04-22 10:48 54.15568 39.30324 24805 ft 419 kts 264°
2026-04-22 10:49 54.15435 39.25378 24805 ft 417 kts 275°
2026-04-22 10:49 54.15957 39.20538 24802 ft 414 kts 290°
2026-04-22 10:49 54.16976 39.15962 24809 ft 412 kts 294°
2026-04-22 10:49 54.18089 39.11455 24795 ft 413 kts 295°
2026-04-22 10:50 54.19215 39.06939 24794 ft 413 kts 295°
2026-04-22 10:50 54.20324 39.02406 24795 ft 414 kts 294°
2026-04-22 10:50 54.21044 38.99400 24789 ft 414 kts 294°
2026-04-22 10:50 54.22124 38.94835 24786 ft 414 kts 294°
2026-04-22 10:51 54.23556 38.88796 24793 ft 413 kts 297°
2026-04-22 10:51 54.25141 38.84770 24801 ft 407 kts 316°
2026-04-22 10:51 54.27375 38.81843 24793 ft 404 kts 334°
2026-04-22 10:51 54.29989 38.80169 24797 ft 400 kts 350°
2026-04-22 10:52 54.31811 38.79791 24796 ft 398 kts
2026-04-22 10:52 54.34545 38.80344 24797 ft 397 kts 16°
2026-04-22 10:52 54.37067 38.82220 24794 ft 396 kts 33°
2026-04-22 10:52 54.39166 38.85279 24788 ft 397 kts 49°
2026-04-22 10:53 54.40656 38.89248 24792 ft 399 kts 65°
2026-04-22 10:53 54.41416 38.93825 24795 ft 401 kts 81°
2026-04-22 10:53 54.41449 38.98625 24795 ft 405 kts 96°
2026-04-22 10:53 54.40712 39.03302 24803 ft 408 kts 109°
2026-04-22 10:54 54.39646 39.07817 24800 ft 409 kts 111°
2026-04-22 10:54 54.38527 39.12304 24789 ft 409 kts 111°
2026-04-22 10:54 54.37412 39.16797 24785 ft 409 kts 111°
2026-04-22 10:54 54.36321 39.21304 24790 ft 409 kts 110°
2026-04-22 10:55 54.35246 39.25814 24795 ft 409 kts 110°
2026-04-22 10:55 54.34164 39.30318 24791 ft 409 kts 113°
2026-04-22 10:55 54.32584 39.34370 24805 ft 413 kts 132°
2026-04-22 10:55 54.30316 39.37396 24796 ft 417 kts 150°
2026-04-22 10:56 54.27595 39.39154 24806 ft 420 kts 167°
2026-04-22 10:56 54.24683 39.39455 24806 ft 423 kts 185°
2026-04-22 10:56 54.21868 39.38243 24802 ft 424 kts 204°
2026-04-22 10:56 54.19374 39.35578 24803 ft 425 kts 222°
2026-04-22 10:57 54.17483 39.31731 24799 ft 424 kts 240°
2026-04-22 10:57 54.16382 39.27112 24801 ft 421 kts 259°
2026-04-22 10:57 54.16124 39.22154 24809 ft 418 kts 275°
2026-04-22 10:57 54.16679 39.17327 24795 ft 415 kts 291°
2026-04-22 10:58 54.17741 39.12761 24803 ft 414 kts 294°
2026-04-22 10:58 54.18871 39.08224 24792 ft 415 kts 295°
2026-04-22 10:58 54.19998 39.03689 24788 ft 416 kts 295°
2026-04-22 10:58 54.21104 38.99127 24783 ft 416 kts 294°
2026-04-22 10:59 54.22193 38.94540 24788 ft 416 kts 294°
2026-04-22 10:59 54.23270 38.89955 24790 ft 416 kts 294°
2026-04-22 10:59 54.24662 38.85681 24784 ft 411 kts 312°
2026-04-22 10:59 54.26766 38.82453 24792 ft 406 kts 329°
2026-04-22 11:00 54.29323 38.80459 24789 ft 402 kts 346°
2026-04-22 11:00 54.32070 38.79796 24796 ft 399 kts
2026-04-22 11:00 54.34806 38.80495 24794 ft 398 kts 18°
2026-04-22 11:00 54.37294 38.82510 24783 ft 397 kts 34°
2026-04-22 11:01 54.39333 38.85685 24787 ft 397 kts 51°
2026-04-22 11:01 54.40733 38.89686 24793 ft 399 kts 67°
2026-04-22 11:01 54.41415 38.94302 24795 ft 401 kts 83°
2026-04-22 11:01 54.41372 38.99100 24784 ft 405 kts 98°
2026-04-22 11:02 54.40566 39.03734 24804 ft 407 kts 109°
2026-04-22 11:02 54.39492 39.08235 24788 ft 408 kts 111°
2026-04-22 11:02 54.38377 39.12712 24790 ft 408 kts 111°
2026-04-22 11:02 54.37269 39.17198 24780 ft 408 kts 111°
2026-04-22 11:03 54.36184 39.21692 24787 ft 407 kts 110°
2026-04-22 11:03 54.35113 39.26192 24789 ft 407 kts 110°
2026-04-22 11:03 54.34027 39.30672 24789 ft 408 kts 114°
2026-04-22 11:03 54.32394 39.34650 24803 ft 412 kts 133°
2026-04-22 11:04 54.30095 39.37582 24797 ft 416 kts 151°
2026-04-22 11:04 54.27356 39.39242 24806 ft 420 kts 168°
2026-04-22 11:04 54.24439 39.39438 24803 ft 423 kts 186°
2026-04-22 11:04 54.21612 39.38096 24804 ft 425 kts 205°
2026-04-22 11:05 54.19152 39.35309 24801 ft 425 kts 224°
2026-04-22 11:05 54.17326 39.31374 24799 ft 424 kts 242°
2026-04-22 11:05 54.16311 39.26757 24802 ft 422 kts 261°
2026-04-22 11:05 54.16122 39.21734 24806 ft 419 kts 276°
2026-04-22 11:06 54.16749 39.16979 24805 ft 415 kts 292°
2026-04-22 11:06 54.17821 39.12407 24802 ft 415 kts 295°
2026-04-22 11:06 54.18955 39.07868 24789 ft 416 kts 295°
2026-04-22 11:06 54.20085 39.03323 24787 ft 416 kts 295°
2026-04-22 11:07 54.21193 38.98755 24785 ft 417 kts 294°
2026-04-22 11:07 54.22281 38.94169 24779 ft 416 kts 294°
2026-04-22 11:07 54.23359 38.89581 24786 ft 416 kts 295°
2026-04-22 11:07 54.24812 38.85365 24787 ft 410 kts 314°
2026-04-22 11:08 54.26964 38.82224 24788 ft 405 kts 331°
2026-04-22 11:08 54.29530 38.80330 24783 ft 401 kts 347°
2026-04-22 11:08 54.32277 38.79750 24790 ft 398 kts
2026-04-22 11:08 54.34993 38.80512 24791 ft 396 kts 19°
2026-04-22 11:09 54.37455 38.82567 24789 ft 395 kts 35°
2026-04-22 11:09 54.39469 38.85757 24793 ft 396 kts 51°
2026-04-22 11:09 54.40868 38.89828 24792 ft 398 kts 68°
2026-04-22 11:09 54.41527 38.94428 24792 ft 400 kts 83°
2026-04-22 11:10 54.41476 38.99219 24785 ft 404 kts 98°
2026-04-22 11:10 54.40670 39.03854 24803 ft 407 kts 109°
2026-04-22 11:10 54.39597 39.08360 24792 ft 408 kts 111°
2026-04-22 11:10 54.38482 39.12828 24788 ft 408 kts 111°
2026-04-22 11:11 54.37372 39.17311 24783 ft 408 kts 110°
2026-04-22 11:11 54.36288 39.21804 24786 ft 407 kts 110°
2026-04-22 11:11 54.35218 39.26297 24789 ft 407 kts 110°
2026-04-22 11:11 54.34129 39.30782 24790 ft 408 kts 114°
2026-04-22 11:12 54.32492 39.34768 24802 ft 413 kts 133°
2026-04-22 11:12 54.30187 39.37726 24798 ft 418 kts 150°
2026-04-22 11:12 54.27484 39.39395 24802 ft 422 kts 168°
2026-04-22 11:12 54.24552 39.39633 24800 ft 425 kts 186°
2026-04-22 11:13 54.21700 39.38322 24799 ft 427 kts 205°
2026-04-22 11:13 54.19217 39.35558 24806 ft 427 kts 223°
2026-04-22 11:13 54.17362 39.31629 24800 ft 426 kts 242°
2026-04-22 11:13 54.16308 39.26933 24803 ft 423 kts 261°
2026-04-22 11:14 54.16102 39.21967 24808 ft 420 kts 276°
2026-04-22 11:14 54.16710 39.17145 24797 ft 415 kts 292°
2026-04-22 11:14 54.17784 39.12570 24799 ft 415 kts 295°
2026-04-22 11:14 54.18916 39.08032 24790 ft 415 kts 295°
2026-04-22 11:15 54.20047 39.03487 24786 ft 416 kts 295°
2026-04-22 11:15 54.21154 38.98919 24777 ft 416 kts 294°
2026-04-22 11:15 54.22241 38.94336 24782 ft 416 kts 294°
2026-04-22 11:15 54.23321 38.89740 24781 ft 416 kts 295°
2026-04-22 11:16 54.24745 38.85505 24785 ft 409 kts 313°
2026-04-22 11:16 54.26857 38.82313 24793 ft 403 kts 330°
2026-04-22 11:16 54.29387 38.80325 24790 ft 399 kts 346°
2026-04-22 11:16 54.32109 38.79609 24797 ft 395 kts
2026-04-22 11:17 54.34819 38.80196 24791 ft 393 kts 17°
2026-04-22 11:17 54.37319 38.82062 24788 ft 392 kts 32°
2026-04-22 11:17 54.39378 38.85003 24791 ft 392 kts 48°
2026-04-22 11:17 54.40903 38.88887 24791 ft 395 kts 64°
2026-04-22 11:18 54.41732 38.93383 24787 ft 398 kts 79°
2026-04-22 11:18 54.41858 38.98160 24792 ft 402 kts 92°
2026-04-22 11:18 54.41232 39.02850 24796 ft 406 kts 108°
2026-04-22 11:18 54.40186 39.07366 24787 ft 407 kts 110°
2026-04-22 11:19 54.39079 39.11834 24779 ft 408 kts 110°
2026-04-22 11:19 54.37968 39.16309 24780 ft 407 kts 110°
2026-04-22 11:19 54.36880 39.20797 24782 ft 407 kts 109°
2026-04-22 11:19 54.35808 39.25290 24786 ft 407 kts 109°
2026-04-22 11:20 54.34740 39.29782 24789 ft 407 kts 110°
2026-04-22 11:20 54.33343 39.33946 24786 ft 413 kts 127°
2026-04-22 11:20 54.31210 39.37254 24793 ft 418 kts 144°
2026-04-22 11:20 54.28571 39.39385 24796 ft 423 kts 162°
2026-04-22 11:21 54.25646 39.40118 24797 ft 427 kts 180°
2026-04-22 11:21 54.22715 39.39310 24798 ft 430 kts 198°
2026-04-22 11:21 54.20061 39.36998 24804 ft 430 kts 217°
2026-04-22 11:21 54.17951 39.33413 24786 ft 429 kts 236°
2026-04-22 11:22 54.16587 39.28908 24794 ft 426 kts 254°
2026-04-22 11:22 54.16079 39.23962 24802 ft 422 kts 271°
2026-04-22 11:22 54.16366 39.19020 24775 ft 417 kts 288°
2026-04-22 11:22 54.17329 39.14444 24805 ft 414 kts 295°
2026-04-22 11:23 54.18460 39.09852 24794 ft 415 kts 296°
2026-04-22 11:23 54.19581 39.05372 24778 ft 415 kts 296°
2026-04-22 11:23 54.20699 39.00815 24788 ft 416 kts 295°
2026-04-22 11:23 54.21793 38.96234 24785 ft 416 kts 295°
2026-04-22 11:24 54.22871 38.91659 24785 ft 416 kts 295°
2026-04-22 11:24 54.24050 38.87152 24763 ft 413 kts 305°
2026-04-22 11:24 54.25898 38.83496 24804 ft 404 kts 323°
2026-04-22 11:24 54.28262 38.80978 24789 ft 399 kts 339°
2026-04-22 11:25 54.30903 38.79670 24794 ft 394 kts 354°
2026-04-22 11:25 54.33627 38.79616 24796 ft 391 kts
2026-04-22 11:25 54.36245 38.80831 24784 ft 389 kts 24°
2026-04-22 11:25 54.38549 38.83223 24782 ft 389 kts 39°
2026-04-22 11:26 54.40384 38.86625 24789 ft 390 kts 54°
2026-04-22 11:26 54.41609 38.90792 24783 ft 394 kts 70°
2026-04-22 11:26 54.42129 38.95417 24791 ft 397 kts 84°
2026-04-22 11:26 54.41981 39.00166 24789 ft 403 kts 99°
2026-04-22 11:27 54.41119 39.04764 24797 ft 406 kts 108°
2026-04-22 11:27 54.40053 39.09195 24786 ft 407 kts 110°
2026-04-22 11:27 54.38926 39.13719 24789 ft 407 kts 110°
2026-04-22 11:27 54.37823 39.18197 24779 ft 407 kts 109°
2026-04-22 11:28 54.36757 39.22630 24787 ft 407 kts 109°
2026-04-22 11:28 54.35688 39.27120 24793 ft 407 kts 109°
2026-04-22 11:28 54.34586 39.31593 24778 ft 409 kts 114°
2026-04-22 11:28 54.32887 39.35520 24804 ft 416 kts 133°
2026-04-22 11:29 54.30537 39.38453 24786 ft 422 kts 150°
2026-04-22 11:29 54.27762 39.40137 24796 ft 427 kts 167°
2026-04-22 11:29 54.24789 39.40371 24791 ft 431 kts 186°
2026-04-22 11:29 54.21895 39.39054 24800 ft 433 kts 204°
2026-04-22 11:30 54.19366 39.36286 24790 ft 433 kts 223°
2026-04-22 11:30 54.17460 39.32345 24790 ft 430 kts 242°
2026-04-22 11:30 54.16345 39.27648 24790 ft 426 kts 260°
2026-04-22 11:30 54.16069 39.22655 24805 ft 421 kts 275°
2026-04-22 11:31 54.16584 39.17779 24792 ft 415 kts 292°
2026-04-22 11:31 54.17631 39.13201 24795 ft 414 kts 296°
2026-04-22 11:31 54.18756 39.08677 24786 ft 414 kts 296°
2026-04-22 11:31 54.19885 39.04148 24777 ft 415 kts 296°
2026-04-22 11:32 54.20995 38.99587 24781 ft 415 kts 295°
2026-04-22 11:32 54.22083 38.95010 24782 ft 416 kts 295°
2026-04-22 11:32 54.23161 38.90423 24787 ft 416 kts 295°
2026-04-22 11:32 54.24474 38.86080 24770 ft 409 kts 311°
2026-04-22 11:33 54.26478 38.82707 24791 ft 401 kts 328°
2026-04-22 11:33 54.28913 38.80480 24793 ft 395 kts 343°
2026-04-22 11:33 54.31568 38.79436 24791 ft 390 kts 357°
2026-04-22 11:33 54.34229 38.79609 24795 ft 387 kts 12°
2026-04-22 11:34 54.36783 38.80998 24785 ft 386 kts 26°
2026-04-22 11:34 54.39034 38.83486 24796 ft 385 kts 36°
2026-04-22 11:34 54.41370 38.85603 24462 ft 380 kts 14°
2026-04-22 11:34 54.43960 38.85817 24235 ft 374 kts 351°
2026-04-22 11:35 54.46372 38.84347 24274 ft 363 kts 337°
2026-04-22 11:35 54.48563 38.82108 24259 ft 374 kts 328°
2026-04-22 11:35 54.50721 38.79458 24273 ft 388 kts 327°
2026-04-22 11:35 54.52989 38.76840 24075 ft 404 kts 334°
2026-04-22 11:36 54.55622 38.74706 23459 ft 426 kts 339°
2026-04-22 11:36 54.58334 38.72747 23176 ft 414 kts 340°
2026-04-22 11:36 54.60944 38.70896 23027 ft 399 kts 340°
2026-04-22 11:36 54.63418 38.69131 22930 ft 383 kts 340°
2026-04-22 11:37 54.65840 38.67382 22806 ft 370 kts 340°
2026-04-22 11:37 54.68177 38.65675 22707 ft 358 kts 340°
2026-04-22 11:37 54.70449 38.64003 22607 ft 355 kts 340°
2026-04-22 11:37 54.72060 38.62814 22540 ft 357 kts 339°
2026-04-22 11:38 54.74316 38.61143 22438 ft 358 kts 339°
2026-04-22 11:38 54.76603 38.59443 22333 ft 358 kts 339°
2026-04-22 11:38 54.81042 38.56129 22118 ft 358 kts 339°
2026-04-22 11:39 54.83323 38.54422 22010 ft 357 kts 339°
2026-04-22 11:39 54.85607 38.52710 21902 ft 356 kts 339°
2026-04-22 11:39 54.87878 38.51006 21794 ft 355 kts 339°
2026-04-22 11:39 54.90145 38.49301 21688 ft 354 kts 339°
2026-04-22 11:40 54.92395 38.47609 21583 ft 352 kts 339°
2026-04-22 11:40 54.93885 38.46487 21520 ft 351 kts 339°
2026-04-22 11:40 54.96121 38.44801 21415 ft 350 kts 339°
2026-04-22 11:40 54.98359 38.43112 21312 ft 350 kts 339°
2026-04-22 11:41 55.00588 38.41428 21210 ft 349 kts 339°
2026-04-22 11:41 55.02818 38.39741 21100 ft 349 kts 339°
2026-04-22 11:41 55.05042 38.38056 20996 ft 348 kts 339°
2026-04-22 11:41 55.07264 38.36371 20896 ft 348 kts 339°
2026-04-22 11:42 55.09479 38.34689 20799 ft 347 kts 339°
2026-04-22 11:42 55.11690 38.33007 20688 ft 347 kts 339°
2026-04-22 11:42 55.13897 38.31327 20580 ft 346 kts 339°
2026-04-22 11:42 55.16110 38.29596 20138 ft 348 kts 334°
2026-04-22 11:43 55.17972 38.26859 19239 ft 357 kts 309°
2026-04-22 11:43 55.19158 38.23032 18398 ft 363 kts 291°
2026-04-22 11:43 55.19865 38.18757 17450 ft 366 kts 287°
2026-04-22 11:43 55.20490 38.14426 16455 ft 368 kts 286°
2026-04-22 11:44 55.21098 38.10087 15411 ft 368 kts 286°
2026-04-22 11:44 55.21719 38.05690 14171 ft 375 kts 286°
2026-04-22 11:44 55.22357 38.01239 12901 ft 379 kts 286°
2026-04-22 11:44 55.23007 37.96745 11601 ft 381 kts 285°
2026-04-22 11:45 55.23649 37.92334 11064 ft 364 kts 286°
2026-04-22 11:45 55.24272 37.88070 10526 ft 360 kts 286°
2026-04-22 11:45 55.24894 37.83828 10011 ft 357 kts 286°
2026-04-22 11:45 55.25507 37.79625 9460 ft 355 kts 285°
2026-04-22 11:46 55.26106 37.75510 8881 ft 348 kts 285°
2026-04-22 11:46 55.26690 37.71487 8321 ft 334 kts 286°
2026-04-22 11:46 55.27248 37.67634 7986 ft 317 kts 285°
2026-04-22 11:46 55.27778 37.63976 7696 ft 304 kts 285°
2026-04-22 11:47 55.28293 37.60400 7390 ft 302 kts 285°
2026-04-22 11:47 55.28710 37.57523 7108 ft 300 kts 285°
2026-04-22 11:47 55.29218 37.53997 6796 ft 297 kts 285°
2026-04-22 11:47 55.29720 37.50498 6487 ft 294 kts 285°
2026-04-22 11:48 55.30212 37.47054 6287 ft 288 kts 285°
2026-04-22 11:48 55.30753 37.43743 6143 ft 278 kts 295°
2026-04-22 11:48 55.31879 37.41082 6017 ft 268 kts 320°
2026-04-22 11:48 55.33481 37.39502 5852 ft 266 kts 341°
2026-04-22 11:49 55.35296 37.38987 5667 ft 263 kts 359°
2026-04-22 11:49 55.37077 37.39466 5487 ft 262 kts 11°
2026-04-22 11:49 55.38836 37.40310 5288 ft 262 kts 14°
2026-04-22 11:49 55.40576 37.41211 5079 ft 259 kts 14°
2026-04-22 11:50 55.42293 37.42089 4892 ft 256 kts 13°
2026-04-22 11:50 55.43992 37.42931 4701 ft 252 kts 13°
2026-04-22 11:50 55.45683 37.43748 4540 ft 253 kts 12°
2026-04-22 11:50 55.47383 37.44571 4345 ft 253 kts 13°
2026-04-22 11:51 55.49081 37.45392 4144 ft 252 kts 13°
2026-04-22 11:51 55.50771 37.46203 3982 ft 252 kts 12°
2026-04-22 11:51 55.52475 37.47025 3777 ft 251 kts 12°
2026-04-22 11:51 55.54122 37.47824 3682 ft 240 kts 12°
2026-04-22 11:52 55.55667 37.48580 3546 ft 220 kts 12°
2026-04-22 11:52 55.57085 37.49267 3449 ft 204 kts 12°
2026-04-22 11:52 55.58394 37.49906 3298 ft 189 kts 12°
2026-04-22 11:52 55.59625 37.49950 3020 ft 169 kts 338°
2026-04-22 11:53 55.60670 37.49189 2851 ft 162 kts 334°
2026-04-22 11:53 55.61740 37.48459 2588 ft 162 kts 337°
2026-04-22 11:53 55.62701 37.47570 2322 ft 151 kts 307°
2026-04-22 11:53 55.62894 37.45918 2283 ft 141 kts 260°
2026-04-22 11:54 55.62834 37.44188 2286 ft 139 kts 273°
2026-04-22 11:54 55.62683 37.42544 2250 ft 134 kts 254°
2026-04-22 11:54 55.62431 37.40956 2176 ft 136 kts 256°
2026-04-22 11:54 55.62122 37.39355 2003 ft 136 kts 252°
2026-04-22 11:55 55.61777 37.37789 1786 ft 137 kts 251°
2026-04-22 11:55 55.61428 37.36242 1610 ft 135 kts 252°
2026-04-22 11:55 55.61064 37.34707 1421 ft 139 kts 248°
2026-04-22 11:55 55.60693 37.33147 1168 ft 136 kts 252°
2026-04-22 11:56 55.60375 37.31583 937 ft 136 kts 250°
2026-04-22 11:56 55.60021 37.30016 784 ft 138 kts 249°
2026-04-22 11:56 55.59687 37.28487 697 ft 127 kts 251°
2026-04-22 11:56 55.59391 37.27193 687 ft 95 kts 248°
2026-04-22 11:57 55.59220 37.26428 690 ft 34 kts 249°
2026-04-22 11:57 55.59224 37.26195 688 ft 18 kts 352°
2026-04-22 11:57 55.59336 37.26280 689 ft 17 kts 25°
2026-04-22 11:57 55.59436 37.26393 687 ft 19 kts 56°
2026-04-22 11:58 55.59496 37.26636 687 ft 22 kts 68°
2026-04-22 11:58 55.59564 37.26873 690 ft 21 kts 47°
2026-04-22 11:58 55.59666 37.27061 691 ft 21 kts 47°
2026-04-22 11:58 55.59763 37.27246 692 ft 20 kts 47°
2026-04-22 11:59 55.59857 37.27423 694 ft 20 kts 47°
2026-04-22 11:59 55.59945 37.27600 689 ft 19 kts 57°
2026-04-22 11:59 55.60043 37.27727 692 ft 18 kts 339°
2026-04-22 11:59 55.60159 37.27645 691 ft 18 kts 352°
2026-04-22 12:00 55.60188 37.27638 686 ft 0 kts 352°
2026-04-22 12:00 55.60194 37.27636 689 ft 4 kts 354°
2026-04-22 12:00 55.60235 37.27667 694 ft 8 kts 62°
2026-04-22 12:00 55.60238 37.27725 694 ft 0 kts 89°
2026-04-22 12:01 55.60238 37.27726 694 ft 0 kts 89°